Sioux Lookout, Ontario

10:31 AM CDT on September 25, 2016 (GMT -0500)
Sioux Lookout

Weather History for CYXL - January, 2013

Change the Weather History Date:

Wednesday, January 30, 2013

  Actual Average Record
Temperature  
Mean Temperature 2 °F -  
Max Temperature 3 °F 13 °F 41 °F (1999)
Min Temperature -2 °F -1 °F -23 °F (2004)
Degree Days  
Heating Degree Days 64    
Moisture  
Dew Point -2 °F    
Average Humidity 77    
Maximum Humidity 85    
Minimum Humidity 65    
Precipitation  
Precipitation 0.00 in - - ()
Sea Level Pressure  
Sea Level Pressure 29.83 in    
Wind  
Wind Speed 9 mph ()    
Max Wind Speed 15 mph    
Max Gust Speed 18 mph    
Visibility 10.8 miles    
Events Snow    
Averages and records for this station are not official NWS values.
T = Trace of Precipitation, MM = Missing Value Source: Averaged Metar Reports

Daily Weather History Graph

Daily Weather History Graph

Search for Another Location

Airport or City:

Trip Planner

Search our weather history database for the weather conditions in past years. The results will help you decide how hot, cold, wet, or windy it might be!

Date:

Astronomy

Jan. 30, 2013 Rise Set
Actual Time 7:43 AM CST 4:58 PM CST
Civil Twilight 7:08 AM CST 5:33 PM CST
Nautical Twilight 6:29 AM CST 6:13 PM CST
Astronomical Twilight 5:51 AM CST 6:51 PM CST
Moon 9:28 PM CST (1/30) 8:44 AM CST (1/30)
Length of Visible Light 10h 25m
Length of Day
9h 14m
Waning Gibbous, 87% of the Moon is Illuminated
Jan 30
Waning Gibbous
Feb 3
Last Quarter
Feb 10
New
Feb 17
First Quarter
Feb 25
Full

Hourly Weather History & Observations

Time (CST) Temp. Windchill Dew Point Humidity Pressure Visibility Wind Dir Wind Speed Gust Speed Precip Events Conditions
12:00 AM 9 °F - 5 °F 74% 29.83 in 12 mi NNW 13.8 mph - - Snow Light Snow
12:00 AM 8.6 °F -8.3 °F 5.0 °F 85% 29.83 in 12.0 mi NNW 15.0 mph - N/A Snow Light Snow
1:00 AM 8.6 °F -6.3 °F 3.2 °F 79% 29.87 in 15.0 mi NNW 11.5 mph 18.4 mph N/A Snow Light Snow
2:00 AM 6.8 °F -6.9 °F -0.4 °F 72% 29.84 in 15.0 mi North 9.2 mph 17.3 mph N/A Snow Light Snow
3:00 AM 5.0 °F -10.8 °F 1.4 °F 85% 29.84 in 15.0 mi North 11.5 mph - N/A Snow Light Snow
4:00 AM 3.2 °F -12.2 °F -0.4 °F 85% 29.83 in 15.0 mi North 10.4 mph 18.4 mph N/A Snow Light Snow
5:00 AM 3.2 °F -9.1 °F -2.2 °F 78% 29.84 in 10.0 mi NNE 6.9 mph - N/A Snow Light Snow
6:00 AM 2 °F - -3 °F 71% 29.88 in 15 mi North 6.9 mph - - Snow Light Snow
6:00 AM 1.4 °F -11.3 °F -2.2 °F 85% 29.88 in 15.0 mi North 6.9 mph - N/A Snow Light Snow
7:00 AM 1.4 °F -9.9 °F -2.2 °F 85% 29.87 in 15.0 mi North 5.8 mph - N/A Snow Light Snow
8:00 AM 1.4 °F -12.5 °F -2.2 °F 85% 29.85 in 15.0 mi North 8.1 mph - N/A Snow Light Snow
9:00 AM 3.2 °F -13.1 °F -2.2 °F 78% 29.83 in 5.0 mi North 11.5 mph 17.3 mph N/A Snow Light Snow
10:00 AM 3.2 °F -9.1 °F -2.2 °F 78% 29.84 in 3.0 mi North 6.9 mph - N/A Snow Light Snow
11:00 AM 3.2 °F -9.1 °F -4.0 °F 72% 29.83 in 5.0 mi North 6.9 mph - N/A Snow Light Snow
12:00 PM 2 °F - -4 °F 65% 29.83 in 5 mi North 6.9 mph - - Snow Light Snow
12:00 PM 3.2 °F -9.1 °F -4.0 °F 72% 29.83 in 5.0 mi North 6.9 mph - N/A Snow Light Snow
1:00 PM 3.2 °F -11.3 °F -4.0 °F 72% 29.82 in 5.0 mi North 9.2 mph - N/A Snow Light Snow
2:00 PM 3.2 °F -10.3 °F -2.2 °F 78% 29.80 in 5.0 mi North 8.1 mph 17.3 mph N/A Snow Light Snow
3:00 PM 3.2 °F -11.3 °F -2.2 °F 78% 29.79 in 8.0 mi North 9.2 mph - N/A Snow Light Snow
4:00 PM 3.2 °F -12.2 °F -2.2 °F 78% 29.79 in 10.0 mi North 10.4 mph - N/A Snow Light Snow
5:00 PM 3.2 °F -9.1 °F -2.2 °F 78% 29.80 in 10.0 mi North 6.9 mph - N/A Snow Light Snow
6:00 PM 2 °F - -3 °F 69% 29.83 in 10 mi North 8.1 mph - - Snow Light Snow
6:00 PM 3.2 °F -11.3 °F -2.2 °F 78% 29.83 in 10.0 mi North 9.2 mph - N/A Snow Light Snow
7:00 PM 1.4 °F -9.9 °F -4.0 °F 78% 29.83 in 10.0 mi NE 5.8 mph - N/A Snow Light Snow
8:00 PM 1.4 °F -12.5 °F -4.0 °F 78% 29.83 in 12.0 mi North 8.1 mph - N/A Snow Light Snow
9:00 PM -0.4 °F -16.7 °F -5.8 °F 78% 29.82 in 15.0 mi North 10.4 mph - N/A Snow Light Snow
10:00 PM -0.4 °F -13.4 °F -5.8 °F 78% 29.82 in 15.0 mi North 6.9 mph - N/A Snow Light Snow
11:00 PM -2.2 °F -18.0 °F -7.6 °F 78% 29.82 in 15.0 mi North 9.2 mph - N/A Snow Light Snow